This is the latest recevied weather packets stored in our database for station/object VR2HK-13. If no packets are shown the sender has not sent any weather packets the latest 1 day(s).
| Time | Temp. | Humidity | Pressure | Rain* | Wind** | Luminosity | Snow |
|---|---|---|---|---|---|---|---|
| 1778052906 | 24.44° C | 81% | 1012 hPa | 0.76 mm | 2.24 m/s, 260° | - | - |
| 1778052868 | 24.44° C | 81% | 1012.1 hPa | 0.76 mm | 2.24 m/s, 265° | - | - |
| 1778052607 | 24.44° C | 81% | 1012.2 hPa | 0.76 mm | 0.45 m/s, 360° | - | - |
| 1778052558 | 24.44° C | 81% | 1012.2 hPa | 0.76 mm | 0 m/s | - | - |
| 1778052307 | 23.89° C | 81% | 1012.2 hPa | 0.76 mm | 1.34 m/s, 311° | - | - |
| 1778052247 | 23.89° C | 81% | 1012.2 hPa | 0.76 mm | 1.34 m/s, 59° | - | - |
| 1778052006 | 23.89° C | 80% | 1012.3 hPa | 0.51 mm | 2.68 m/s, 282° | - | - |
| 1778051938 | 23.89° C | 81% | 1012.2 hPa | 0.51 mm | 1.79 m/s, 241° | - | - |
| 1778051715 | 23.89° C | 80% | 1012.3 hPa | 0.51 mm | 0.45 m/s, 39° | - | - |
| 1778051628 | 23.89° C | 80% | 1012.4 hPa | 0.51 mm | 1.79 m/s, 313° | - | - |
| 1778051407 | 24.44° C | 80% | 1012.3 hPa | 0.51 mm | 1.79 m/s, 60° | - | - |
| 1778051318 | 24.44° C | 81% | 1012.3 hPa | 0.51 mm | 0.89 m/s, 235° | - | - |
| 1778051106 | 24.44° C | 80% | 1012.2 hPa | 0.51 mm | 0.89 m/s, 246° | - | - |
| 1778051007 | 24.44° C | 80% | 1012.2 hPa | 0.51 mm | 1.34 m/s, 242° | - | - |
| 1778050806 | 24.44° C | 80% | 1012.3 hPa | 0.51 mm | 0.89 m/s, 270° | - | - |
| 1778050698 | 24.44° C | 80% | 1012.3 hPa | 0.51 mm | 2.24 m/s, 241° | - | - |
| 1778050507 | 23.89° C | 80% | 1012.4 hPa | 0.51 mm | 0.45 m/s, 326° | - | - |
| 1778050387 | 24.44° C | 80% | 1012.4 hPa | 0.76 mm | 0.45 m/s, 229° | - | - |
| 1778050206 | 24.44° C | 80% | 1012.5 hPa | 0.76 mm | 2.24 m/s, 323° | - | - |
| 1778050078 | 24.44° C | 80% | 1012.4 hPa | 0.76 mm | 2.24 m/s, 103° | - | - |
| 1778049906 | 24.44° C | 80% | 1012.4 hPa | 0.76 mm | 0.89 m/s, 17° | - | - |
| 1778049768 | 24.44° C | 80% | 1012.4 hPa | 0.76 mm | 2.68 m/s, 313° | - | - |
| 1778049606 | 24.44° C | 80% | 1012.4 hPa | 0.51 mm | 1.79 m/s, 228° | - | - |
| 1778049457 | 24.44° C | 81% | 1012.3 hPa | 0.51 mm | 2.24 m/s, 300° | - | - |
| 1778049306 | 23.89° C | 81% | 1012.4 hPa | 0.76 mm | 0.89 m/s, 271° | - | - |
* Rain latest hour (hover to see other rain measurements)
** Current wind speed in m/s (hover to see current wind gust speed)